[[{"header":{"parameterUnit":"m.s-1","parameterCategory":1,"la1":30.2991,"la2":30.254,"lo1":-89.0895,"lo2":-89.0444,"dy":0.0017,"dx":0.0017,"nx":28,"ny":28,"refTime":"2025-04-27T03:00:00:Z","depth":0,"parameterNumber":2,"parameterNumberName":"U-component_of_WINDS"},"data":[0,0,0,0,0,0,0,0,0,0,0,0,0,0,0,0,0,0,0,0,0,0,0,0,0,0,0,0,0,0,0,0,0,0,0,0,0,0,0,0,0,0,0,0,0,0,0,0,0,0,0,0,0,0,0,0,0,0,0.5811,0.5812,0,0.5887,0.5888,0.5889,0.5918,0.5918,0.5918,0.5917,0.5996,0.5998,0.6,0,0,0,0,0,0,0,0,0,0,0,0,0,0.5689,0.5692,0.5811,0.5812,0.5813,0.5887,0.5888,0.5889,0.5918,0.5918,0.5918,0.5917,0.5995,0.5997,0.6,0,0,0,0,0,0,0,0,0,0,0,0,0,0.5751,0.5692,0.5811,0.5836,0.5839,0.5887,0.5888,0.5889,0.5918,0.5918,0.5918,0.5917,0.5994,0.5997,0.6001,0.6028,0,0,0.6011,0.6012,0,0,0,0,0,0,0,0,0.5748,0.5756,0.5831,0.5834,0.5838,0.5893,0.5874,0.5936,0.5918,0.5888,0.5917,0.5917,0.5962,0.5968,0.5983,0.6032,0.6035,0.6011,0.6013,0.6015,0.6016,0,0,0,0,0,0,0,0.5744,0.5753,0.5841,0.5832,0.5836,0.5843,0.5852,0.5886,0.5926,0.5891,0.5893,0.5902,0.5963,0.5979,0.5985,0.6036,0.6011,0.6014,0.6016,0.6018,0.6111,0.6111,0,0,0,0,0,0,0.5735,0.5749,0.5838,0.5843,0.5791,0.5846,0.5855,0.5875,0.5925,0.5933,0.5902,0.5903,0.5974,0.5981,0.5988,0.6022,0.6015,0.6018,0.602,0.611,0.6111,0.6111,0,0,0,0,0,0,0.5732,0.5743,0.5835,0.5797,0.5809,0.5848,0.5871,0.5877,0.5893,0.5934,0.5941,0.5911,0.5974,0.5983,0.6018,0.6026,0.602,0.6023,0.611,0.611,0.6111,0.6093,0,0,0,0,0,0,0.5729,0.5742,0.5753,0.5797,0.5811,0.5864,0.5871,0.5879,0.5899,0.5901,0.5944,0.5951,0.5974,0.6012,0.6021,0.603,0.6025,0.6109,0.611,0.6111,0.6093,0.6093,0.6093,0,0,0,0,0,0.5724,0.5745,0.5753,0.5764,0.5826,0.5865,0.5873,0.5899,0.5899,0.5911,0.5937,0.595,0.6023,0.6016,0.6026,0.6036,0.6109,0.611,0.6111,0.6093,0.6093,0.6093,0,0,0,0,0,0,0.5701,0.5751,0.5761,0.5796,0.5826,0.587,0.5885,0.5898,0.5928,0.5929,0.5959,0.5969,0.6001,0.6022,0.6013,0.6065,0.6067,0.607,0.605,0.605,0.605,0.6044,0.6028,0,0,0,0,0,0.57,0.5728,0.577,0.5797,0.5811,0.5845,0.5863,0.5881,0.5913,0.5925,0.5954,0.5984,0.6014,0.6033,0.6063,0.6096,0.6105,0.6108,0.6108,0.6107,0.611,0.6128,0.6129,0.6114,0.6114,0.6114,0,0,0.5698,0.5729,0.5745,0.5793,0.5818,0.5846,0.5856,0.5885,0.5905,0.593,0.5964,0.5986,0.6022,0.6056,0.6072,0.6074,0.6116,0.6108,0.6108,0.611,0.6129,0.613,0.6131,0.6115,0.6115,0.6115,0,0,0.5709,0.5735,0.576,0.5785,0.5823,0.5845,0.5851,0.5892,0.5908,0.5943,0.5961,0.5986,0.6037,0.6062,0.6081,0.6099,0.6112,0.6108,0.6108,0.6125,0.6126,0.6127,0.6133,0.6135,0.611,0.611,0.611,0,0.5702,0.5745,0.5772,0.5799,0.582,0.5843,0.5868,0.5891,0.5936,0.5949,0.5951,0.6015,0.6041,0.608,0.6084,0.6099,0.6106,0.6104,0.6123,0.6125,0.6126,0.6133,0.6135,0.6109,0.6109,0.611,0.611,0,0.5734,0.5763,0.5778,0.5821,0.5844,0.587,0.59,0.5919,0.5934,0.5956,0.5991,0.6023,0.6059,0.6069,0.6085,0.6111,0.6111,0.6118,0.612,0.6127,0.6133,0.6136,0.6108,0.6109,0.6109,0.6109,0,0,0.5732,0.5789,0.5795,0.5814,0.5857,0.588,0.5906,0.5942,0.5957,0.5987,0.601,0.6052,0.6059,0.608,0.6098,0.6113,0.6125,0.6118,0.612,0.6118,0.6155,0.6149,0.6152,0.6134,0.6134,0.6135,0.6152,0,0.5748,0.5798,0.5823,0.5861,0.5888,0.591,0.5933,0.5961,0.5982,0.6008,0.6031,0.606,0.6066,0.6079,0.6095,0.612,0.6133,0.6119,0.6155,0.6156,0.6145,0.6155,0.615,0.6164,0.6154,0.6155,0.6155,0,0.5774,0.5804,0.5845,0.5884,0.5896,0.5917,0.595,0.5975,0.6007,0.6021,0.6044,0.6062,0.609,0.6091,0.613,0.612,0.6136,0.6151,0.6152,0.6156,0.6156,0.6159,0.617,0.6172,0.6159,0.6159,0.6159,0,0.5768,0.5819,0.585,0.5866,0.5912,0.5926,0.5946,0.5978,0.5997,0.6026,0.6039,0.6071,0.6089,0.6113,0.6138,0.6136,0.6175,0.6178,0.6187,0.6186,0.6195,0.6194,0.6207,0.6205,0.6205,0.6205,0.6205,0,0.5784,0.5808,0.5848,0.5867,0.5894,0.5922,0.5948,0.597,0.5998,0.6021,0.6042,0.6063,0.6095,0.612,0.614,0.6169,0.6177,0.6189,0.6194,0.6187,0.6186,0.6198,0.6198,0.6205,0.6205,0.6205,0.6205,0,0.5782,0.581,0.5845,0.5886,0.5896,0.5915,0.5949,0.5968,0.599,0.6019,0.6027,0.6061,0.6091,0.6119,0.616,0.6173,0.6202,0.6209,0.6192,0.6194,0.6202,0.6201,0.6224,0.6228,0.6223,0.6223,0.6223,0,0.579,0.5809,0.5852,0.5869,0.5888,0.5915,0.5935,0.5963,0.5982,0.602,0.6034,0.6066,0.6093,0.614,0.6168,0.6199,0.6207,0.6212,0.6211,0.6204,0.6206,0.6205,0.6207,0.6212,0.6212,0.6212,0.6212,0,0.5801,0.5814,0.5841,0.5873,0.5896,0.5923,0.595,0.5963,0.5996,0.6016,0.6048,0.6068,0.611,0.6141,0.6175,0.6195,0.6209,0.6212,0.6216,0.6209,0.6198,0.6204,0.6191,0.6212,0.6212,0.6212,0.6212,0.6212,0.5804,0.5822,0.5855,0.5884,0.5908,0.5933,0.5952,0.5976,0.6003,0.6038,0.6053,0.6084,0.6115,0.6162,0.6182,0.6207,0.621,0.6215,0.6217,0.6218,0.6216,0.6194,0.6213,0.6213,0.6213,0.6213,0.6213,0,0.5816,0.5838,0.5865,0.5902,0.5926,0.5937,0.5967,0.5986,0.6013,0.6041,0.6067,0.6103,0.6133,0.6163,0.6194,0.6208,0.6216,0.6216,0.6215,0.6219,0.6212,0.6205,0.6209,0.6209,0.6209,0.6209,0.6209,0.6209,0.5825,0.5855,0.5871,0.5913,0.5935,0.5966,0.5983,0.6005,0.6028,0.6066,0.6091,0.6111,0.6139,0.6173,0.6201,0.6209,0.6219,0.6218,0.6227,0.622,0.622,0.622,0.6214,0.622,0.622,0.6233,0.6233,0.6233]},{"header":{"parameterUnit":"m.s-1","parameterCategory":1,"la1":30.2991,"la2":30.254,"lo1":-89.0895,"lo2":-89.0444,"dy":0.0017,"dx":0.0017,"nx":28,"ny":28,"refTime":"2025-04-27T03:00:00:Z","depth":0,"parameterNumber":3,"parameterNumberName":"V-component_of_WINDS"},"data":[0,0,0,0,0,0,0,0,0,0,0,0,0,0,0,0,0,0,0,0,0,0,0,0,0,0,0,0,0,0,0,0,0,0,0,0,0,0,0,0,0,0,0,0,0,0,0,0,0,0,0,0,0,0,0,0,0,0,3.825,3.825,0,3.8221,3.822,3.822,3.8185,3.8184,3.8184,3.8183,3.8151,3.8151,3.815,0,0,0,0,0,0,0,0,0,0,0,0,0,3.8275,3.8274,3.825,3.825,3.8249,3.8221,3.822,3.822,3.8185,3.8184,3.8184,3.8183,3.8151,3.8151,3.815,0,0,0,0,0,0,0,0,0,0,0,0,0,3.8256,3.8274,3.825,3.8228,3.8226,3.8221,3.822,3.822,3.8185,3.8184,3.8184,3.8183,3.8151,3.8151,3.815,3.8163,0,0,3.8148,3.8148,0,0,0,0,0,0,0,0,3.8257,3.8256,3.8232,3.823,3.8227,3.8206,3.8217,3.82,3.8185,3.8201,3.8183,3.8182,3.817,3.8167,3.8164,3.8161,3.816,3.8148,3.8148,3.8148,3.8148,0,0,0,0,0,0,0,3.8259,3.8257,3.8238,3.8232,3.8229,3.822,3.8216,3.8214,3.819,3.8199,3.8197,3.8194,3.8168,3.8164,3.8163,3.8159,3.8148,3.8148,3.8148,3.8147,3.8166,3.8166,0,0,0,0,0,0,3.8264,3.8258,3.8239,3.8237,3.8241,3.822,3.8216,3.8213,3.819,3.8186,3.8195,3.8192,3.8166,3.8163,3.8161,3.8174,3.8148,3.8147,3.8147,3.8165,3.8166,3.8167,0,0,0,0,0,0,3.8264,3.8262,3.824,3.8247,3.8243,3.8221,3.8218,3.8213,3.8209,3.8186,3.8182,3.8195,3.8165,3.8162,3.8163,3.8172,3.8147,3.8147,3.8164,3.8165,3.8166,3.82,0,0,0,0,0,0,3.8265,3.8263,3.8267,3.8247,3.8243,3.8243,3.8218,3.8213,3.8209,3.8205,3.8185,3.8181,3.8164,3.8164,3.8162,3.8171,3.8146,3.8163,3.8164,3.8166,3.8198,3.8202,3.8206,0,0,0,0,0,3.8266,3.8277,3.8268,3.8266,3.8249,3.8243,3.8241,3.8221,3.821,3.8214,3.8199,3.8182,3.8172,3.8164,3.8162,3.8171,3.8162,3.8164,3.8166,3.8196,3.8201,3.8206,0,0,0,0,0,0,3.8298,3.8274,3.8263,3.8268,3.8258,3.8237,3.8242,3.8228,3.822,3.8217,3.8193,3.8189,3.8192,3.8182,3.8173,3.8182,3.8165,3.8166,3.8188,3.8193,3.8197,3.8198,3.8146,0,0,0,0,0,3.8306,3.8304,3.8283,3.829,3.8285,3.8265,3.8262,3.8248,3.8236,3.8231,3.8216,3.8205,3.8199,3.8196,3.8189,3.8197,3.8192,3.8202,3.8206,3.821,3.821,3.8213,3.8218,3.8173,3.8173,3.8173,0,0,3.8321,3.8308,3.8308,3.8296,3.8286,3.8284,3.8261,3.826,3.8258,3.8231,3.823,3.822,3.8205,3.8209,3.821,3.8201,3.8222,3.8212,3.8215,3.8214,3.8216,3.822,3.8224,3.8174,3.8174,3.8174,0,0,3.8348,3.8339,3.8343,3.8334,3.8321,3.8307,3.8309,3.829,3.8282,3.8282,3.8262,3.8259,3.825,3.824,3.8235,3.8261,3.8244,3.8259,3.8279,3.8282,3.8286,3.8289,3.8297,3.8301,3.8261,3.8261,3.8261,0,3.8369,3.8365,3.8347,3.8347,3.8342,3.8319,3.8323,3.8315,3.83,3.8297,3.8287,3.8276,3.8264,3.8266,3.8273,3.8269,3.8269,3.826,3.8287,3.829,3.8292,3.83,3.8303,3.8263,3.8262,3.8262,3.8262,0,3.8391,3.8389,3.8394,3.8381,3.8377,3.8379,3.8361,3.8359,3.8346,3.8334,3.8334,3.832,3.8311,3.8311,3.8298,3.831,3.8305,3.8292,3.8273,3.8299,3.8306,3.8308,3.8265,3.8265,3.8264,3.8264,0,0,3.8434,3.8413,3.8415,3.8408,3.8393,3.8391,3.8392,3.8384,3.8383,3.8374,3.8374,3.8368,3.8356,3.8349,3.8335,3.8338,3.8359,3.8324,3.8324,3.833,3.8371,3.838,3.8384,3.8349,3.835,3.835,3.8372,0,3.8457,3.8459,3.8443,3.8448,3.8446,3.8425,3.8427,3.8417,3.8406,3.8403,3.8391,3.8386,3.8371,3.8367,3.837,3.8356,3.8367,3.8354,3.8348,3.8348,3.835,3.8388,3.8397,3.8418,3.8375,3.8375,3.8376,0,3.8483,3.8477,3.8482,3.8467,3.8466,3.8467,3.8459,3.8456,3.8445,3.8437,3.8431,3.8416,3.8416,3.84,3.84,3.8392,3.8389,3.8382,3.8382,3.8379,3.8362,3.8384,3.8425,3.8427,3.838,3.8379,3.8379,0,3.8513,3.8506,3.8508,3.8504,3.8487,3.8488,3.8481,3.8469,3.8466,3.8458,3.8456,3.8448,3.8444,3.8439,3.8422,3.8412,3.8423,3.8406,3.8416,3.8416,3.8417,3.8417,3.8456,3.8418,3.8418,3.8418,3.8418,0,3.8539,3.8543,3.8521,3.8522,3.8526,3.8509,3.8513,3.8504,3.8494,3.8493,3.8475,3.8474,3.8453,3.845,3.8437,3.8438,3.8437,3.843,3.8426,3.843,3.8431,3.8426,3.8424,3.8419,3.8419,3.8418,3.8418,0,3.8572,3.8558,3.8559,3.8543,3.8539,3.8543,3.8529,3.8529,3.8519,3.8517,3.8516,3.8499,3.8494,3.8478,3.8469,3.8461,3.8465,3.8459,3.8469,3.8466,3.8476,3.8475,3.8512,3.8516,3.8477,3.8478,3.8478,0,3.8588,3.8591,3.8576,3.8574,3.8568,3.8566,3.8562,3.8546,3.8543,3.8531,3.8533,3.8528,3.8522,3.8516,3.8502,3.8496,3.8488,3.8502,3.8487,3.8491,3.8487,3.8486,3.8486,3.8504,3.8505,3.8505,3.8506,0,3.8619,3.8612,3.8608,3.8602,3.8599,3.8593,3.8586,3.8586,3.8567,3.8565,3.8561,3.8557,3.8549,3.8543,3.8535,3.8527,3.8513,3.8511,3.8512,3.8516,3.8521,3.8517,3.8476,3.8509,3.8509,3.8509,3.8509,3.8508,3.8642,3.8644,3.8634,3.863,3.8624,3.8619,3.8618,3.8608,3.8605,3.8597,3.8588,3.8585,3.8575,3.8562,3.8556,3.8553,3.8545,3.8548,3.8548,3.8548,3.855,3.8524,3.8551,3.8551,3.8551,3.8551,3.8551,0,3.8671,3.8664,3.8661,3.8653,3.865,3.8639,3.8632,3.863,3.8628,3.862,3.8615,3.8611,3.8606,3.8593,3.8587,3.8587,3.858,3.8586,3.8584,3.8583,3.8558,3.8557,3.8591,3.8591,3.8591,3.8591,3.8591,3.8591,3.8685,3.8687,3.868,3.8678,3.8671,3.8669,3.8665,3.866,3.8654,3.865,3.8646,3.8638,3.8628,3.8621,3.8616,3.8613,3.8611,3.8618,3.8612,3.8588,3.8584,3.8581,3.8579,3.8618,3.8618,3.8637,3.8637,3.8637]}]]